When you browse on this site, cookies collect data to enhance your experience and personalize the content and advertising you see.
Visit our Privacy Policy to learn more. By continuing to use the site, you agree to this use of cookies and data.
  • In Hungary
  • List of Countries
  • For 7 days
  • Water Temperature
  • Satellite Maps
  • Weather Map
  • News
  • Weather Widgets
  • user-avatar
    Login

    Hourly Weather Otwock

    Today, 20 February, Wednesday

    Time Temperature Precipitation Wind Pressure Humidity
    00:00 +4°C° 0 mm 4 mps 750 mmHg 88%
    01:00 +3°C° 0 mm 3 mps 749 mmHg 88%
    02:00 +3°C° 0 mm 4 mps 750 mmHg 89%
    03:00 +3°C° 0 mm 4 mps 750 mmHg 89%
    04:00 +1°C° 0 mm 5 mps 750 mmHg 89%
    05:00 +2°C° 0 mm 5 mps 750 mmHg 88%
    06:00 +2°C° 0 mm 5 mps 750 mmHg 87%
    07:00 +2°C° 0 mm 5 mps 750 mmHg 87%
    08:00 +2°C° 0.1 mm 6 mps 751 mmHg 80%
    09:00 +3°C° 0.1 mm 6 mps 751 mmHg 73%
    10:00 +4°C° 0.1 mm 7 mps 751 mmHg 67%
    11:00 +4°C° 0.1 mm 7 mps 752 mmHg 65%
    12:00 +4°C° 0.1 mm 7 mps 752 mmHg 64%
    13:00 +4°C° 0 mm 7 mps 752 mmHg 61%
    14:00 +4°C° 0.1 mm 7 mps 752 mmHg 62%
    15:00 +4°C° 0.1 mm 7 mps 752 mmHg 62%
    16:00 +4°C° 0.1 mm 7 mps 752 mmHg 63%
    17:00 +4°C° 0 mm 6 mps 753 mmHg 65%
    18:00 +3°C° 0 mm 6 mps 753 mmHg 68%
    19:00 +3°C° 0 mm 6 mps 753 mmHg 70%
    20:00 +3°C° 0 mm 5 mps 754 mmHg 72%
    21:00 +2°C° 0 mm 5 mps 755 mmHg 75%
    22:00 +3°C° 0 mm 4 mps 755 mmHg 77%
    23:00 +1°C° 0 mm 4 mps 755 mmHg 81%

    Tomorrow, 21 February, Thursday

    Time Temperature Precipitation Wind Pressure Humidity
    00:00 +1°C° 0 mm 4 mps 756 mmHg 85%
    01:00 +1°C° 0 mm 3 mps 756 mmHg 89%
    02:00 +1°C° 0 mm 3 mps 756 mmHg 91%
    03:00 0°C° 0 mm 3 mps 756 mmHg 92%
    04:00 0°C° 0 mm 3 mps 756 mmHg 94%
    05:00 0°C° 0 mm 3 mps 756 mmHg 94%
    06:00 +2°C° 0 mm 2 mps 756 mmHg 95%
    07:00 +2°C° 0 mm 2 mps 756 mmHg 95%
    08:00 +2°C° 0.3 mm 2 mps 756 mmHg 95%
    09:00 +3°C° 0.3 mm 2 mps 756 mmHg 94%
    10:00 +2°C° 0.3 mm 3 mps 756 mmHg 94%
    11:00 +3°C° 0.3 mm 3 mps 756 mmHg 91%
    12:00 +4°C° 0.3 mm 4 mps 756 mmHg 88%
    13:00 +4°C° 0.3 mm 4 mps 755 mmHg 85%
    14:00 +4°C° 0.9 mm 4 mps 755 mmHg 87%
    15:00 +4°C° 0.9 mm 4 mps 755 mmHg 88%
    16:00 +4°C° 0.9 mm 4 mps 754 mmHg 90%
    17:00 +4°C° 1 mm 4 mps 754 mmHg 90%
    18:00 +4°C° 1 mm 4 mps 754 mmHg 91%
    19:00 +4°C° 1 mm 4 mps 754 mmHg 92%
    20:00 +4°C° 0.5 mm 4 mps 754 mmHg 92%
    21:00 +4°C° 0.5 mm 4 mps 753 mmHg 93%
    22:00 +4°C° 0.5 mm 3 mps 753 mmHg 94%
    23:00 +3°C° 0.9 mm 3 mps 753 mmHg 94%

    Day after tomorrow, 22 February, Friday

    Time Temperature Precipitation Wind Pressure Humidity
    00:00 +3°C° 0.9 mm 4 mps 754 mmHg 94%
    01:00 +3°C° 0.9 mm 4 mps 754 mmHg 95%
    02:00 0°C° 0.3 mm 5 mps 754 mmHg 91%
    03:00 -2°C° 0.3 mm 6 mps 755 mmHg 87%
    04:00 -4°C° 0.3 mm 6 mps 755 mmHg 83%
    05:00 -4°C° 0 mm 6 mps 757 mmHg 79%
    06:00 -5°C° 0 mm 6 mps 758 mmHg 74%
    07:00 -5°C° 0 mm 6 mps 760 mmHg 70%
    08:00 -5°C° 0 mm 6 mps 761 mmHg 64%
    09:00 -5°C° 0 mm 6 mps 762 mmHg 58%
    10:00 -5°C° 0 mm 6 mps 763 mmHg 52%
    11:00 -5°C° 0 mm 6 mps 764 mmHg 51%
    12:00 -4°C° 0 mm 5 mps 765 mmHg 49%
    13:00 -4°C° 0 mm 5 mps 765 mmHg 48%
    14:00 -4°C° 0 mm 5 mps 766 mmHg 48%
    15:00 -5°C° 0 mm 5 mps 766 mmHg 48%
    16:00 -5°C° 0 mm 5 mps 766 mmHg 47%
    17:00 -5°C° 0 mm 5 mps 767 mmHg 48%
    18:00 -5°C° 0 mm 4 mps 767 mmHg 48%
    19:00 -5°C° 0 mm 4 mps 768 mmHg 48%
    20:00 -5°C° 0 mm 4 mps 768 mmHg 46%
    21:00 -5°C° 0 mm 4 mps 769 mmHg 44%
    22:00 -5°C° 0 mm 4 mps 769 mmHg 42%
    23:00 -5°C° 0 mm 4 mps 770 mmHg 41%

    23 February, Saturday

    Time Temperature Precipitation Wind Pressure Humidity
    00:00 -7°C° 0 mm 4 mps 770 mmHg 41%
    01:00 -6°C° 0 mm 3 mps 770 mmHg 41%
    02:00 -6°C° 0 mm 3 mps 770 mmHg 42%
    03:00 -6°C° 0 mm 3 mps 770 mmHg 43%
    04:00 -5°C° 0 mm 2 mps 770 mmHg 45%
    05:00 -5°C° 0 mm 2 mps 770 mmHg 46%
    06:00 -5°C° 0 mm 2 mps 771 mmHg 47%
    07:00 -6°C° 0 mm 2 mps 771 mmHg 48%
    08:00 -5°C° 0 mm 2 mps 771 mmHg 45%
    09:00 -4°C° 0 mm 2 mps 772 mmHg 41%
    10:00 -4°C° 0 mm 2 mps 772 mmHg 37%
    11:00 -3°C° 0 mm 2 mps 771 mmHg 35%
    12:00 -2°C° 0 mm 2 mps 771 mmHg 32%
    13:00 -2°C° 0 mm 2 mps 771 mmHg 30%
    14:00 -2°C° 0 mm 2 mps 771 mmHg 30%
    15:00 -2°C° 0 mm 2 mps 771 mmHg 31%
    16:00 -2°C° 0 mm 2 mps 770 mmHg 31%
    17:00 -2°C° 0 mm 2 mps 770 mmHg 34%
    18:00 -1°C° 0 mm 1 mps 770 mmHg 37%
    19:00 -1°C° 0 mm 1 mps 770 mmHg 39%
    20:00 -1°C° 0 mm 1 mps 770 mmHg 39%
    21:00 -1°C° 0 mm 1 mps 770 mmHg 39%
    22:00 0°C° 0 mm 1 mps 770 mmHg 40%
    23:00 -2°C° 0 mm 2 mps 769 mmHg 40%

    24 February, Sunday

    Time Temperature Precipitation Wind Pressure Humidity
    00:00 -2°C° 0 mm 2 mps 769 mmHg 40%
    01:00 -2°C° 0 mm 2 mps 769 mmHg 41%
    02:00 -2°C° 0 mm 3 mps 768 mmHg 40%
    03:00 -2°C° 0 mm 3 mps 768 mmHg 40%
    04:00 -2°C° 0 mm 3 mps 767 mmHg 40%
    05:00 -2°C° 0 mm 3 mps 767 mmHg 40%
    06:00 -2°C° 0 mm 3 mps 767 mmHg 41%
    07:00 -2°C° 0 mm 3 mps 767 mmHg 42%
    08:00 -2°C° 0 mm 4 mps 766 mmHg 42%
    09:00 -1°C° 0 mm 4 mps 766 mmHg 43%
    10:00 -1°C° 0 mm 4 mps 766 mmHg 43%
    11:00 0°C° 0 mm 4 mps 766 mmHg 47%
    12:00 0°C° 0 mm 4 mps 765 mmHg 51%
    13:00 +1°C° 0 mm 4 mps 765 mmHg 54%
    14:00 +1°C° 0 mm 4 mps 764 mmHg 59%
    15:00 +1°C° 0 mm 4 mps 764 mmHg 65%
    16:00 +2°C° 0 mm 3 mps 763 mmHg 70%
    17:00 +1°C° 0 mm 4 mps 763 mmHg 75%
    18:00 0°C° 0 mm 4 mps 763 mmHg 80%
    19:00 0°C° 0 mm 4 mps 763 mmHg 85%
    20:00 0°C° 0 mm 4 mps 762 mmHg 87%
    21:00 0°C° 0 mm 4 mps 762 mmHg 88%
    22:00 0°C° 0 mm 5 mps 762 mmHg 90%
    23:00 0°C° 0 mm 5 mps 762 mmHg 90%

    25 February, Monday

    Time Temperature Precipitation Wind Pressure Humidity
    00:00 +1°C° 0 mm 5 mps 762 mmHg 91%
    01:00 +1°C° 0 mm 6 mps 762 mmHg 92%
    02:00 -1°C° 0 mm 6 mps 762 mmHg 91%
    03:00 -1°C° 0 mm 6 mps 762 mmHg 90%
    04:00 -1°C° 0 mm 5 mps 763 mmHg 89%
    05:00 -2°C° 0 mm 6 mps 763 mmHg 87%
    06:00 -2°C° 0 mm 6 mps 763 mmHg 86%
    07:00 -2°C° 0 mm 6 mps 763 mmHg 85%
    08:00 -1°C° 0 mm 6 mps 764 mmHg 78%
    09:00 0°C° 0 mm 7 mps 764 mmHg 71%
    10:00 +1°C° 0 mm 8 mps 764 mmHg 63%
    11:00 +2°C° 0 mm 8 mps 764 mmHg 61%
    12:00 +2°C° 0 mm 8 mps 763 mmHg 58%
    13:00 +4°C° 0 mm 8 mps 763 mmHg 56%
    14:00 +3°C° 0 mm 7 mps 763 mmHg 57%
    15:00 +3°C° 0 mm 7 mps 763 mmHg 59%
    16:00 +3°C° 0 mm 6 mps 763 mmHg 60%
    17:00 +2°C° 0 mm 6 mps 763 mmHg 65%
    18:00 +1°C° 0 mm 6 mps 763 mmHg 71%
    19:00 0°C° 0 mm 5 mps 764 mmHg 76%
    20:00 0°C° 0 mm 5 mps 764 mmHg 78%
    21:00 0°C° 0 mm 5 mps 764 mmHg 79%
    22:00 -1°C° 0 mm 5 mps 764 mmHg 81%
    23:00 -1°C° 0 mm 4 mps 764 mmHg 81%
    Show more